FW9607 Weather Reports


Display with metric or nautical units.
time (UTC)temp
F
wind
direction
speed
MPH
gust
MPH
rain 1hr
in
rain 24hr
in
rain mn
in
humidity
%
barometer
mb
20260901222602 95 129 4.0 10.0 0.00 0.00 0.00 54 1010.3
20260901221100 95 122 5.0 12.0 0.00 0.00 0.00 55 1010.2
20260901220600 96 104 4.0 12.0 0.00 0.00 0.00 52 1010.2
20260901220100 96 133 4.0 10.0 0.00 0.00 0.00 53 1010.1
20260901215557 96 136 4.0 12.0 0.00 0.00 0.00 54 1010.2
20260901215058 96 113 4.0 12.0 0.00 0.00 0.00 55 1010.3
20260901214057 96 71 4.0 11.0 0.00 0.00 0.00 53 1010.3
20260901213558 97 132 4.0 9.0 0.00 0.00 0.00 53 1010.3
20260901212557 97 174 4.0 11.0 0.00 0.00 0.00 53 1010.4
20260901212058 97 172 4.0 11.0 0.00 0.00 0.00 53 1010.5
20260901211557 97 65 4.0 9.0 0.00 0.00 0.00 53 1010.4
20260901211057 97 107 3.0 9.0 0.00 0.00 0.00 54 1010.5
20260901210557 98 79 3.0 7.0 0.00 0.00 0.00 52 1010.5
20260901205555 97 176 4.0 9.0 0.00 0.00 0.00 52 1010.6
20260901204554 98 115 3.0 8.0 0.00 0.00 0.00 52 1010.7
20260901204055 98 91 4.0 9.0 0.00 0.00 0.00 52 1010.8
20260901203555 99 164 3.0 9.0 0.00 0.00 0.00 49 1010.7
20260901203056 99 134 3.0 8.0 0.00 0.00 0.00 49 1010.9
20260901202055 98 155 3.0 7.0 0.00 0.00 0.00 49 1011.0
20260901201555 98 153 3.0 7.0 0.00 0.00 0.00 49 1011.1
20260901201055 99 98 4.0 7.0 0.00 0.00 0.00 50 1011.1
20260901200055 100 145 4.0 9.0 0.00 0.00 0.00 45 1011.2
20260901195556 99 181 4.0 9.0 0.00 0.00 0.00 44 1011.2
20260901195052 99 222 4.0 11.0 0.00 0.00 0.00 46 1011.3
20260901194554 99 106 4.0 11.0 0.00 0.00 0.00 45 1011.4
20260901194050 100 187 3.0 9.0 0.00 0.00 0.00 43 1011.5
20260901192050 99 113 3.0 8.0 0.00 0.00 0.00 44 1011.8
20260901191550 99 91 3.0 7.0 0.00 0.00 0.00 43 1011.9
20260901190051 98 30 4.0 10.0 0.00 0.00 0.00 46 1011.9
20260901185551 97 95 4.0 10.0 0.00 0.00 0.00 47 1012.0
20260901185050 98 71 4.0 9.0 0.00 0.00 0.00 46 1012.0
20260901184050 98 49 2.0 6.0 0.00 0.00 0.00 46 1012.2
20260901183550 98 0 2.0 6.0 0.00 0.00 0.00 45 1012.2
20260901183048 98 202 2.0 6.0 0.00 0.00 0.00 45 1012.3
20260901182545 98 137 2.0 7.0 0.00 0.00 0.00 44 1012.4
20260901182044 97 182 3.0 8.0 0.00 0.00 0.00 46 1012.5
20260901180542 96 136 2.0 6.0 0.00 0.00 0.00 47 1012.8
20260901180046 97 168 2.0 6.0 0.00 0.00 0.00 49 1013.0
20260901175541 97 153 2.0 8.0 0.00 0.00 0.00 48 1012.9
20260901175042 96 120 2.0 8.0 0.00 0.00 0.00 45 1013.0
20260901174542 96 134 3.0 9.0 0.00 0.00 0.00 50 1013.1
20260901174042 96 127 4.0 9.0 0.00 0.00 0.00 49 1013.2
20260901173542 95 109 3.0 9.0 0.00 0.00 0.00 46 1013.2
20260901173043 95 65 2.0 9.0 0.00 0.00 0.00 47 1013.3
20260901172543 96 99 3.0 6.0 0.00 0.00 0.00 48 1013.3
20260901172043 95 100 3.0 9.0 0.00 0.00 0.00 48 1013.4
20260901171542 95 189 4.0 9.0 0.00 0.00 0.00 48 1013.5
20260901171039 95 119 3.0 8.0 0.00 0.00 0.00 48 1013.5
20260901170540 95 125 2.0 6.0 0.00 0.00 0.00 49 1013.6
20260901170039 95 88 2.0 8.0 0.00 0.00 0.00 51 1013.6
20260901165541 94 139 4.0 9.0 0.00 0.00 0.00 51 1013.6
20260901165041 94 173 3.0 9.0 0.00 0.00 0.00 50 1013.6
20260901164537 94 177 3.0 6.0 0.00 0.00 0.00 53 1013.7
20260901163537 93 119 3.0 8.0 0.00 0.00 0.00 53 1013.8
20260901163037 93 167 3.0 8.0 0.00 0.00 0.00 55 1013.9
20260901162537 93 199 3.0 8.0 0.00 0.00 0.00 54 1013.9
20260901162038 92 110 2.0 6.0 0.00 0.00 0.00 57 1013.9
20260901161537 92 172 3.0 7.0 0.00 0.00 0.00 58 1013.9
20260901161037 92 114 4.0 7.0 0.00 0.00 0.00 58 1013.9
20260901160535 91 134 3.0 8.0 0.00 0.00 0.00 58 1013.8
20260901155531 91 194 3.0 8.0 0.00 0.00 0.00 60 1013.8
20260901154037 90 170 3.0 9.0 0.00 0.00 0.00 62 1013.6
20260901153032 90 192 2.0 7.0 0.00 0.00 0.00 63 1013.6
20260901152526 89 205 2.0 7.0 0.00 0.00 0.00 65 1013.7
20260901152035 89 126 2.0 6.0 0.00 0.00 0.00 68 1013.8
20260901151526 89 135 2.0 6.0 0.00 0.00 0.00 68 1013.9
20260901151038 88 188 2.0 9.0 0.00 0.00 0.00 69 1013.9
20260901150527 88 138 2.0 9.0 0.00 0.00 0.00 70 1013.9
20260901150035 88 172 3.0 11.0 0.00 0.00 0.00 70 1013.9
20260901145526 87 171 3.0 11.0 0.00 0.00 0.00 72 1013.9
20260901145035 87 96 2.0 8.0 0.00 0.00 0.00 73 1013.9
20260901144523 87 126 2.0 11.0 0.00 0.00 0.00 74 1013.9
20260901144035 86 177 3.0 11.0 0.00 0.00 0.00 75 1013.9
20260901143525 86 162 4.0 9.0 0.00 0.00 0.00 77 1013.8
20260901142525 86 188 3.0 9.0 0.00 0.00 0.00 78 1013.8
20260901141035 86 178 2.0 8.0 0.00 0.00 0.00 79 1013.9
20260901140528 86 126 2.0 5.0 0.00 0.00 0.00 78 1013.9
20260901140032 86 150 1.0 4.0 0.00 0.00 0.00 79 1014.0
20260901135527 85 178 1.0 4.0 0.00 0.00 0.00 79 1013.9
20260901135028 85 152 2.0 3.0 0.00 0.00 0.00 80 1013.9
20260901134523 85 131 2.0 3.0 0.00 0.00 0.00 81 1013.9
20260901133526 84 187 2.0 3.0 0.00 0.00 0.00 82 1013.8
20260901133009 83 153 2.0 3.0 0.00 0.00 0.00 83 1013.8
20260901132452 83 166 2.0 3.0 0.00 0.00 0.00 84 1013.8
20260901131952 83 158 2.0 3.0 0.00 0.00 0.00 84 1013.8
20260901130952 82 150 2.0 3.0 0.00 0.00 0.00 86 1013.6
20260901130452 82 125 2.0 3.0 0.00 0.00 0.00 87 1013.5
20260901125952 81 127 2.0 3.0 0.00 0.00 0.00 89 1013.4
20260901125452 80 169 3.0 4.0 0.00 0.00 0.00 89 1013.3
20260901123952 80 156 2.0 3.0 0.00 0.00 0.00 90 1013.2
20260901123454 80 149 2.0 3.0 0.00 0.00 0.00 91 1013.3
20260901122954 80 162 2.0 3.0 0.00 0.00 0.00 91 1013.2
20260901122453 79 168 2.0 3.0 0.00 0.00 0.00 91 1013.1
20260901121952 80 182 2.0 3.0 0.00 0.00 0.00 91 1013.1
20260901120938 80 178 2.0 2.0 0.00 0.00 0.00 90 1013.0
20260901120438 80 180 2.0 2.0 0.00 0.00 0.00 90 1012.9
20260901115938 80 183 2.0 3.0 0.00 0.00 0.00 90 1012.9
20260901115438 80 180 2.0 3.0 0.00 0.00 0.00 90 1012.8
20260901114938 80 161 2.0 3.0 0.00 0.00 0.00 90 1012.8
20260901114438 80 168 2.0 3.0 0.00 0.00 0.00 90 1012.8
20260901113939 80 158 2.0 3.0 0.00 0.00 0.00 90 1012.9
20260901113438 80 178 2.0 3.0 0.00 0.00 0.00 90 1012.9
20260901112438 80 167 2.0 3.0 0.00 0.00 0.00 90 1012.8
20260901111939 80 167 2.0 3.0 0.00 0.00 0.00 90 1012.8
20260901111438 80 163 2.0 2.0 0.00 0.00 0.00 90 1012.8
20260901110443 80 167 2.0 2.0 0.00 0.00 0.00 89 1012.8
20260901105923 81 174 2.0 3.0 0.00 0.00 0.00 89 1012.8
20260901105428 81 152 2.0 3.0 0.00 0.00 0.00 89 1012.8
20260901104924 81 168 2.0 2.0 0.00 0.00 0.00 89 1012.9
20260901104428 81 161 2.0 3.0 0.00 0.00 0.00 89 1012.9
20260901103926 81 165 2.0 3.0 0.00 0.00 0.00 89 1012.9
20260901103429 81 137 2.0 3.0 0.00 0.00 0.00 90 1012.9
20260901102924 80 143 2.0 2.0 0.00 0.00 0.00 90 1013.0
20260901102428 80 109 2.0 3.0 0.00 0.00 0.00 90 1012.9
20260901100927 81 143 1.0 2.0 0.00 0.00 0.00 89 1012.9
20260901100429 81 167 1.0 2.0 0.00 0.00 0.00 89 1012.9
20260901095924 81 176 2.0 2.0 0.00 0.00 0.00 89 1012.9
20260901095414 81 162 2.0 2.0 0.00 0.00 0.00 89 1012.9
20260901094855 81 129 1.0 2.0 0.00 0.00 0.00 89 1013.0
20260901094357 81 158 1.0 2.0 0.00 0.00 0.00 90 1013.0
20260901093839 81 159 1.0 2.0 0.00 0.00 0.00 89 1013.0
20260901093340 81 161 1.0 2.0 0.00 0.00 0.00 89 1013.0
20260901092840 81 168 2.0 2.0 0.00 0.00 0.00 89 1012.9
20260901092343 81 175 2.0 2.0 0.00 0.00 0.00 89 1012.9
20260901091840 81 170 2.0 2.0 0.00 0.00 0.00 89 1012.9
20260901090840 81 165 2.0 2.0 0.00 0.00 0.00 89 1012.9
20260901090341 82 175 2.0 3.0 0.00 0.00 0.00 88 1012.9
20260901085841 82 176 2.0 3.0 0.00 0.00 0.00 88 1013.0
20260901085341 82 146 2.0 3.0 0.00 0.00 0.00 88 1013.0
20260901084842 82 152 1.0 2.0 0.00 0.00 0.00 88 1013.0
20260901084340 82 154 1.0 2.0 0.00 0.00 0.00 88 1013.0
20260901083825 82 142 1.0 2.0 0.00 0.00 0.00 89 1013.0
20260901083326 82 145 1.0 2.0 0.00 0.00 0.00 88 1013.0
20260901082826 82 134 1.0 2.0 0.00 0.00 0.00 88 1013.0
20260901082326 82 167 1.0 2.0 0.00 0.00 0.00 88 1013.0
20260901081828 82 160 1.0 2.0 0.00 0.00 0.00 88 1013.1
20260901081327 82 152 1.0 3.0 0.00 0.00 0.00 88 1013.1
20260901080327 82 157 1.0 2.0 0.00 0.00 0.00 88 1013.1
20260901075829 82 138 1.0 2.0 0.00 0.00 0.00 88 1013.1
20260901075325 82 166 1.0 2.0 0.00 0.00 0.00 88 1013.1
20260901074325 82 0 1.0 2.0 0.00 0.00 0.00 88 1013.2
20260901073812 82 138 1.0 2.0 0.00 0.00 0.00 87 1013.2
20260901073311 82 154 1.0 2.0 0.00 0.00 0.00 87 1013.3
20260901072757 82 179 1.0 2.0 0.00 0.00 0.00 87 1013.2
20260901072258 82 174 1.0 2.0 0.00 0.00 0.00 87 1013.4
20260901071757 82 0 0.0 1.0 0.00 0.00 0.00 87 1013.4
20260901071243 82 182 0.0 2.0 0.00 0.00 0.00 87 1013.4
20260901070746 82 176 0.0 2.0 0.00 0.00 0.00 87 1013.4
20260901070229 82 155 0.0 2.0 0.00 0.00 0.00 87 1013.4
20260901065731 83 148 1.0 2.0 0.00 0.00 0.00 86 1013.4
20260901065230 83 201 0.0 1.0 0.00 0.00 0.00 86 1013.4
20260901064731 83 147 0.0 2.0 0.00 0.00 0.00 86 1013.4
20260901063730 83 173 1.0 2.0 0.00 0.00 0.00 86 1013.3
20260901063228 83 170 1.0 2.0 0.00 0.00 0.00 86 1013.3
20260901062229 83 189 1.0 3.0 0.00 0.00 0.00 86 1013.4
20260901061727 83 153 1.0 3.0 0.00 0.00 0.00 85 1013.4
20260901061229 83 160 2.0 2.0 0.00 0.00 0.00 85 1013.3
20260901060659 83 182 2.0 3.0 0.00 0.00 0.00 85 1013.3
20260901055659 83 188 2.0 5.0 0.00 0.00 0.00 85 1013.3
20260901055158 84 156 2.0 3.0 0.00 0.00 0.00 84 1013.4
20260901054158 84 159 2.0 3.0 0.00 0.00 0.00 84 1013.3
20260901053658 84 155 2.0 3.0 0.00 0.00 0.00 84 1013.3
20260901053159 84 142 1.0 2.0 0.00 0.00 0.00 84 1013.3
20260901052658 84 163 2.0 3.0 0.00 0.00 0.00 84 1013.3
20260901052158 84 138 2.0 3.0 0.00 0.00 0.00 84 1013.4
20260901051159 84 155 1.0 2.0 0.00 0.00 0.00 84 1013.3
20260901050658 84 178 1.0 2.0 0.00 0.00 0.00 83 1013.4
20260901050144 84 152 2.0 3.0 0.00 0.00 0.00 83 1013.3
20260901045644 84 147 2.0 3.0 0.00 0.00 0.00 83 1013.4
20260901045145 85 132 2.0 3.0 0.00 0.00 0.00 83 1013.3
20260901044647 85 125 2.0 4.0 0.00 0.00 0.00 83 1013.3
20260901044133 85 109 2.0 4.0 0.00 0.00 0.00 83 1013.4
20260901043630 85 164 2.0 3.0 0.00 0.00 0.00 83 1013.4
20260901043132 85 186 1.0 3.0 0.00 0.00 0.00 82 1013.4
20260901042631 85 127 2.0 3.0 0.00 0.00 0.00 82 1013.4
20260901042130 85 170 2.0 3.0 0.00 0.00 0.00 82 1013.4
20260901041630 85 129 2.0 3.0 0.00 0.00 0.00 82 1013.5
20260901041132 85 160 2.0 4.0 0.00 0.00 0.00 82 1013.5
20260901040629 85 188 1.0 4.0 0.00 0.00 0.00 82 1013.6
20260901040129 85 128 1.0 3.0 0.00 0.00 0.00 82 1013.6
20260901035627 85 149 1.0 3.0 0.00 0.00 0.00 82 1013.6
20260901035129 86 0 2.0 3.0 0.00 0.00 0.00 82 1013.6
20260901034612 86 180 2.0 3.0 0.00 0.00 0.00 81 1013.6
20260901034115 86 187 1.0 3.0 0.00 0.00 0.00 81 1013.5
20260901033612 86 129 2.0 3.0 0.00 0.00 0.00 81 1013.5
20260901033114 86 117 2.0 5.0 0.00 0.00 0.00 81 1013.5
20260901032609 86 139 2.0 5.0 0.00 0.00 0.00 80 1013.5
20260901032106 86 177 2.0 5.0 0.00 0.00 0.00 80 1013.3
20260901031108 86 0 2.0 5.0 0.00 0.00 0.00 79 1013.1
20260901030103 86 167 2.0 5.0 0.00 0.00 0.00 78 1012.9
20260901025101 86 122 2.0 5.0 0.00 0.00 0.00 78 1012.7
20260901022600 87 0 3.0 9.0 0.00 0.00 0.00 77 1012.3
20260901022102 87 118 3.0 9.0 0.00 0.00 0.00 76 1012.3
20260901021101 87 112 3.0 7.0 0.00 0.00 0.00 76 1012.1
20260901015558 87 87 3.0 9.0 0.00 0.00 0.00 75 1012.1
20260901015056 87 152 4.0 9.0 0.00 0.00 0.00 75 1012.0
20260901014556 87 118 4.0 9.0 0.00 0.00 0.00 74 1012.0
20260901014056 87 141 4.0 8.0 0.00 0.00 0.00 74 1011.9
20260901013555 87 74 4.0 10.0 0.00 0.00 0.00 74 1011.9
20260901013056 87 166 4.0 10.0 0.00 0.00 0.00 73 1011.9
20260901012556 87 102 4.0 8.0 0.00 0.00 0.00 73 1011.8
20260901012056 87 139 4.0 8.0 0.00 0.00 0.00 73 1011.7
20260901011556 87 150 3.0 8.0 0.00 0.00 0.00 72 1011.7
20260901011056 88 154 3.0 8.0 0.00 0.00 0.00 72 1011.6
20260901010557 88 119 3.0 7.0 0.00 0.00 0.00 71 1011.5
20260901010057 88 102 4.0 11.0 0.00 0.00 0.00 71 1011.5
20260901005556 88 258 4.0 11.0 0.00 0.00 0.00 71 1011.4
20260901005054 88 127 5.0 11.0 0.00 0.00 0.00 70 1011.3
20260901004051 89 89 5.0 11.0 0.00 0.00 0.00 68 1011.3
20260901003551 89 158 4.0 11.0 0.00 0.00 0.00 68 1011.2
20260901003050 89 85 4.0 10.0 0.00 0.00 0.00 66 1011.2
20260901002550 89 121 4.0 11.0 0.00 0.00 0.00 65 1011.2
20260901002050 90 137 5.0 11.0 0.00 0.00 0.00 65 1011.2
20260901001050 91 120 5.0 11.0 0.00 0.00 0.00 63 1011.1
20260901000051 91 89 5.0 14.0 0.00 0.00 0.00 62 1011.0
20260831235551 91 130 5.0 12.0 0.00 0.00 0.00 59 1011.0
20260831235051 91 132 5.0 12.0 0.00 0.00 0.00 58 1011.0
20260831234549 92 115 5.0 10.0 0.00 0.00 0.00 57 1010.9
20260831234048 92 120 4.0 11.0 0.00 0.00 0.00 58 1010.8
20260831233546 92 152 4.0 12.0 0.00 0.00 0.00 56 1010.8
20260831233042 92 128 4.0 12.0 0.00 0.00 0.00 56 1010.8
20260831232542 92 130 5.0 12.0 0.00 0.00 0.00 54 1010.7
20260831231542 93 121 5.0 11.0 0.00 0.00 0.00 51 1010.8
20260831230543 93 104 5.0 13.0 0.00 0.00 0.00 51 1010.7
20260831230043 94 142 5.0 13.0 0.00 0.00 0.00 50 1010.8
20260831225543 94 122 5.0 11.0 0.00 0.00 0.00 49 1010.9
20260831224543 94 124 5.0 13.0 0.00 0.00 0.00 46 1010.8
20260831223543 95 130 5.0 11.0 0.00 0.00 0.00 49 1010.7
20260831223043 95 144 4.0 9.0 0.00 0.00 0.00 49 1010.8